CUTE-1 (CO-55)

Last updated on July 6, 2021, 3:37 p.m. UTC

1 27844U 03031E   21186.90738256  .00000058  00000-0  45627-4 0  9991
2 27844  98.6790 194.8393 0010513  31.9273 328.2540 14.22318201934608
UTC
Height (km)
Latitude
Longitude
Inclination
Orbital Period
UTC large
Height (km)
Speed (km/s)
/
Latitude / Longitude
Inclination (degrees)
Orbital Period (minutes)
Azimuth
Elevation
Range (km)
Doppler Factor
iOS Compass Heading
iOS Angle